Hourly Data Report for October 02, 2015

All times are specified in Local Standard Time (LST). Add 1 hour to adjust for Daylight Saving Time where and when it is observed.

ARVIAT A
NUNAVUT

61°05'38.000" N
94°04'18.000" W
10.40 m
2300427
71174
YEK

Download Data

Hourly Data (October 2015)
Hourly Data Report for October 2, 2015
Temp Definition
°C
Dew Point Temp Definition
°C
Rel Hum Definition
%
Wind Dir Definition
10's deg

Wind Spd Definition
km/h
Visibility Definition
km
Stn Press Definition
kPa
Hmdx Definition


Wind Chill Definition


Weather Definition


TIME
00:00 Legend Double Dagger 8.2 6.7 90 3 24 16.1 102.31     LegendNANA
01:00 Legend Double Dagger 7.3 6.1 92 4 22 16.1 102.35     LegendNANA
02:00 Legend Double Dagger 6.8 5.8 93 4 21 16.1 102.37     LegendNANA
03:00 Legend Double Dagger 6.4 5.5 94 5 21 16.1 102.38     LegendNANA
04:00 Legend Double Dagger 6.3 5.4 94 6 21 16.1 102.38     LegendNANA
05:00 Legend Double Dagger 5.7 5.1 96 6 18 16.1 102.37     LegendNANA
06:00 Legend Double Dagger 5.2 4.9 98 6 15 16.1 102.33     LegendNANA
07:00 Legend Double Dagger 4.8 4.7 99 10 13 16.1 102.32     LegendNANA
08:00 Legend Double Dagger 5.1 5.0 99 17 13 16.1 102.27     LegendNANA
09:00 Legend Double Dagger 6.5 5.9 96 21 18 16.1 102.25     LegendNANA
10:00 Legend Double Dagger 8.2 6.8 91 21 17 16.1 102.20     LegendNANA
11:00 Legend Double Dagger 8.8 6.9 88 19 18 16.1 102.12     LegendNANA
12:00 Legend Double Dagger 8.6 6.8 88 19 28 16.1 102.09     LegendNANA
13:00 Legend Double Dagger 8.9 7.0 88 18 24 16.1 102.07     LegendNANA
14:00 Legend Double Dagger 9.1 7.3 88 18 22 16.1 102.01     LegendNANA
15:00 Legend Double Dagger 10.0 7.9 87 19 32 16.1 101.93     LegendNANA
16:00 Legend Double Dagger 10.3 8.0 86 19 39 16.1 101.88     LegendNANA
17:00 Legend Double Dagger 10.7 8.5 86 20 32 16.1 101.85     LegendNANA
18:00 Legend Double Dagger 9.8 7.8 87 19 24 16.1 101.84     LegendNANA
19:00 Legend Double Dagger 8.5 7.0 90 19 24 16.1 101.83     LegendNANA
20:00 Legend Double Dagger 8.8 6.7 87 20 26 16.1 101.84     LegendNANA
21:00 Legend Double Dagger 8.4 6.2 86 20 26 16.1 101.82     LegendNANA
22:00 Legend Double Dagger 8.0 6.0 87 20 24 16.1 101.80     LegendNANA
23:00 Legend Double Dagger 8.4 6.4 87 20 30 16.1 101.78     LegendNANA

Notes on Data Quality.

Legend

  • E = Estimated
  • M = Missing
  • NA = Not Available
  • ‡ = Partner data that is not subject to review by the National Climate Archives
Date modified: